| time (UTC) | temp F | wind direction | speed MPH | gust MPH | rain 1hr in | rain 24hr in | rain mn in | humidity % | barometer mb |
| 20260906014604 | 65 | 212 | 1.0 | 2.0 | 0.01 | 0.01 | 0.01 | 77 | 1015.3 |
| 20260906014104 | 65 | 212 | 0.0 | 3.0 | 0.01 | 0.01 | 0.01 | 76 | 1015.3 |
| 20260906013605 | 65 | 212 | 1.0 | 3.0 | 0.00 | 0.00 | 0.00 | 76 | 1015.3 |
| 20260906013104 | 65 | 212 | 1.0 | 3.0 | 0.00 | 0.00 | 0.00 | 76 | 1015.3 |
| 20260906012605 | 65 | 213 | 0.0 | 3.0 | 0.00 | 0.00 | 0.00 | 76 | 1015.4 |
| 20260906011623 | 66 | 210 | 2.0 | 5.0 | 0.00 | 0.00 | 0.00 | 76 | 1015.3 |
| 20260906011108 | 66 | 212 | 2.0 | 5.0 | 0.00 | 0.00 | 0.00 | 76 | 1015.3 |
| 20260906010605 | 66 | 213 | 1.0 | 3.0 | 0.00 | 0.00 | 0.00 | 75 | 1015.3 |
| 20260906005606 | 66 | 213 | 1.0 | 3.0 | 0.00 | 0.00 | 0.00 | 75 | 1015.0 |
| 20260906004104 | 67 | 211 | 2.0 | 3.0 | 0.00 | 0.00 | 0.00 | 76 | 1015.0 |
| 20260906003604 | 68 | 212 | 1.0 | 3.0 | 0.00 | 0.00 | 0.00 | 75 | 1015.1 |
| 20260906003105 | 68 | 212 | 1.0 | 3.0 | 0.00 | 0.00 | 0.00 | 75 | 1015.1 |
| 20260906002605 | 69 | 212 | 1.0 | 3.0 | 0.00 | 0.00 | 0.00 | 74 | 1015.1 |
| 20260906001606 | 69 | 212 | 0.0 | 3.0 | 0.00 | 0.00 | 0.00 | 73 | 1014.9 |
| 20260906001106 | 70 | 212 | 1.0 | 3.0 | 0.00 | 0.00 | 0.00 | 73 | 1014.8 |
| 20260906000105 | 69 | 212 | 1.0 | 2.0 | 0.00 | 0.00 | 0.00 | 74 | 1014.8 |
| 20260905235605 | 69 | 212 | 1.0 | 2.0 | 0.00 | 0.00 | 0.00 | 74 | 1014.8 |
| 20260905235106 | 69 | 212 | 1.0 | 3.0 | 0.00 | 0.00 | 0.00 | 74 | 1014.9 |
| 20260905234606 | 69 | 209 | 1.0 | 3.0 | 0.00 | 0.00 | 0.00 | 74 | 1014.9 |
| 20260905234104 | 69 | 195 | 1.0 | 2.0 | 0.00 | 0.00 | 0.00 | 74 | 1014.9 |
| 20260905233605 | 69 | 211 | 0.0 | 3.0 | 0.00 | 0.00 | 0.00 | 74 | 1014.9 |
| 20260905233105 | 69 | 212 | 1.0 | 3.0 | 0.00 | 0.00 | 0.00 | 73 | 1014.9 |
| 20260905232104 | 70 | 212 | 0.0 | 2.0 | 0.00 | 0.00 | 0.00 | 75 | 1014.8 |
| 20260905231606 | 70 | 212 | 1.0 | 3.0 | 0.00 | 0.00 | 0.00 | 74 | 1014.8 |
| 20260905231105 | 70 | 212 | 0.0 | 3.0 | 0.00 | 0.00 | 0.00 | 73 | 1014.9 |
| 20260905230605 | 70 | 224 | 0.0 | 3.0 | 0.00 | 0.00 | 0.00 | 72 | 1015.0 |
| 20260905230104 | 70 | 196 | 1.0 | 3.0 | 0.00 | 0.00 | 0.00 | 73 | 1015.0 |
| 20260905224605 | 69 | 209 | 1.0 | 3.0 | 0.00 | 0.00 | 0.00 | 74 | 1015.0 |
| 20260905224105 | 68 | 210 | 1.0 | 2.0 | 0.00 | 0.00 | 0.00 | 74 | 1015.0 |
| 20260905223605 | 68 | 210 | 0.0 | 3.0 | 0.00 | 0.00 | 0.00 | 74 | 1014.9 |
| 20260905223105 | 68 | 210 | 0.0 | 3.0 | 0.00 | 0.00 | 0.00 | 73 | 1014.9 |
| 20260905222604 | 68 | 210 | 1.0 | 2.0 | 0.00 | 0.00 | 0.00 | 73 | 1014.9 |
| 20260905222106 | 68 | 210 | 0.0 | 2.0 | 0.00 | 0.00 | 0.00 | 72 | 1014.9 |
| 20260905221605 | 68 | 210 | 0.0 | 2.0 | 0.00 | 0.00 | 0.00 | 71 | 1015.0 |
| 20260905220605 | 69 | 210 | 1.0 | 3.0 | 0.00 | 0.00 | 0.00 | 71 | 1015.0 |
| 20260905220104 | 69 | 210 | 0.0 | 3.0 | 0.00 | 0.00 | 0.00 | 70 | 1015.0 |
| 20260905215606 | 69 | 210 | 1.0 | 3.0 | 0.00 | 0.00 | 0.00 | 69 | 1015.1 |
| 20260905215104 | 69 | 210 | 1.0 | 3.0 | 0.00 | 0.00 | 0.00 | 69 | 1015.1 |
| 20260905214604 | 69 | 210 | 1.0 | 3.0 | 0.00 | 0.00 | 0.00 | 69 | 1015.0 |
| 20260905214108 | 69 | 212 | 1.0 | 3.0 | 0.00 | 0.00 | 0.00 | 69 | 1015.1 |
| 20260905213605 | 69 | 210 | 1.0 | 3.0 | 0.00 | 0.00 | 0.00 | 67 | 1015.1 |
| 20260905213104 | 69 | 213 | 1.0 | 3.0 | 0.00 | 0.00 | 0.00 | 67 | 1015.1 |
| 20260905212606 | 69 | 210 | 1.0 | 3.0 | 0.00 | 0.00 | 0.00 | 68 | 1015.2 |
| 20260905212104 | 69 | 212 | 1.0 | 3.0 | 0.00 | 0.00 | 0.00 | 67 | 1015.1 |
| 20260905211105 | 69 | 210 | 1.0 | 3.0 | 0.00 | 0.00 | 0.00 | 68 | 1015.3 |
| 20260905210605 | 68 | 210 | 1.0 | 3.0 | 0.00 | 0.00 | 0.00 | 69 | 1015.3 |
| 20260905210105 | 68 | 210 | 1.0 | 2.0 | 0.00 | 0.00 | 0.00 | 70 | 1015.2 |
| 20260905205104 | 68 | 210 | 1.0 | 3.0 | 0.00 | 0.00 | 0.00 | 71 | 1015.2 |
| 20260905204605 | 67 | 210 | 1.0 | 3.0 | 0.00 | 0.00 | 0.00 | 71 | 1015.3 |
| 20260905204105 | 67 | 210 | 1.0 | 3.0 | 0.00 | 0.00 | 0.00 | 71 | 1015.3 |
| 20260905203604 | 67 | 210 | 1.0 | 3.0 | 0.00 | 0.00 | 0.00 | 73 | 1015.4 |
| 20260905203104 | 67 | 209 | 0.0 | 2.0 | 0.00 | 0.00 | 0.00 | 72 | 1015.4 |
| 20260905202604 | 67 | 209 | 0.0 | 2.0 | 0.00 | 0.00 | 0.00 | 72 | 1015.5 |
| 20260905202104 | 67 | 209 | 0.0 | 3.0 | 0.00 | 0.00 | 0.00 | 71 | 1015.5 |
| 20260905201604 | 67 | 209 | 0.0 | 3.0 | 0.00 | 0.00 | 0.00 | 71 | 1015.5 |
| 20260905201105 | 67 | 209 | 0.0 | 3.0 | 0.00 | 0.00 | 0.00 | 71 | 1015.5 |
| 20260905200604 | 67 | 209 | 0.0 | 2.0 | 0.00 | 0.00 | 0.00 | 71 | 1015.6 |
| 20260905200106 | 68 | 209 | 0.0 | 2.0 | 0.00 | 0.00 | 0.00 | 71 | 1015.7 |
| 20260905195604 | 68 | 210 | 0.0 | 3.0 | 0.00 | 0.00 | 0.00 | 71 | 1015.6 |
| 20260905194604 | 68 | 209 | 1.0 | 3.0 | 0.00 | 0.00 | 0.00 | 71 | 1015.7 |
| 20260905194104 | 67 | 210 | 0.0 | 3.0 | 0.00 | 0.00 | 0.00 | 71 | 1015.7 |
| 20260905193605 | 67 | 210 | 0.0 | 3.0 | 0.00 | 0.00 | 0.00 | 72 | 1015.7 |
| 20260905193105 | 67 | 210 | 0.0 | 2.0 | 0.00 | 0.00 | 0.00 | 71 | 1015.7 |
| 20260905192604 | 67 | 210 | 1.0 | 2.0 | 0.00 | 0.00 | 0.00 | 72 | 1015.6 |
| 20260905191605 | 67 | 210 | 1.0 | 3.0 | 0.00 | 0.00 | 0.00 | 72 | 1015.6 |
| 20260905191105 | 66 | 216 | 1.0 | 3.0 | 0.00 | 0.00 | 0.00 | 72 | 1015.6 |
| 20260905190604 | 66 | 216 | 1.0 | 3.0 | 0.00 | 0.00 | 0.00 | 74 | 1015.6 |
| 20260905190104 | 65 | 216 | 0.0 | 2.0 | 0.00 | 0.00 | 0.00 | 74 | 1015.6 |
| 20260905185604 | 65 | 216 | 0.0 | 2.0 | 0.00 | 0.00 | 0.00 | 74 | 1015.6 |
| 20260905185104 | 65 | 216 | 0.0 | 2.0 | 0.00 | 0.00 | 0.00 | 74 | 1015.6 |
| 20260905184604 | 65 | 216 | 0.0 | 2.0 | 0.00 | 0.00 | 0.00 | 73 | 1015.6 |
| 20260905184105 | 65 | 216 | 0.0 | 2.0 | 0.00 | 0.00 | 0.00 | 75 | 1015.6 |
| 20260905183604 | 65 | 216 | 0.0 | 2.0 | 0.00 | 0.00 | 0.00 | 75 | 1015.6 |
| 20260905182104 | 64 | 216 | 0.0 | 3.0 | 0.00 | 0.00 | 0.00 | 77 | 1015.7 |
| 20260905181105 | 63 | 216 | 0.0 | 3.0 | 0.00 | 0.00 | 0.00 | 79 | 1015.8 |
| 20260905180604 | 62 | 215 | 1.0 | 3.0 | 0.00 | 0.00 | 0.00 | 82 | 1015.8 |
| 20260905180105 | 62 | 215 | 0.0 | 2.0 | 0.00 | 0.00 | 0.00 | 83 | 1015.8 |
| 20260905175607 | 61 | 215 | 0.0 | 2.0 | 0.00 | 0.00 | 0.00 | 83 | 1015.9 |
| 20260905173606 | 61 | 215 | 0.0 | 1.0 | 0.00 | 0.00 | 0.00 | 85 | 1015.8 |
| 20260905173104 | 60 | 215 | 0.0 | 1.0 | 0.00 | 0.00 | 0.00 | 86 | 1015.8 |
| 20260905172605 | 60 | 215 | 0.0 | 1.0 | 0.00 | 0.00 | 0.00 | 87 | 1015.8 |
| 20260905172105 | 60 | 215 | 0.0 | 2.0 | 0.00 | 0.00 | 0.00 | 87 | 1015.8 |
| 20260905171104 | 60 | 215 | 0.0 | 2.0 | 0.00 | 0.00 | 0.00 | 89 | 1015.7 |
| 20260905170604 | 60 | 215 | 0.0 | 3.0 | 0.00 | 0.00 | 0.00 | 89 | 1015.7 |
| 20260905170104 | 60 | 215 | 1.0 | 3.0 | 0.00 | 0.00 | 0.00 | 90 | 1015.7 |
| 20260905165604 | 59 | 215 | 0.0 | 2.0 | 0.00 | 0.00 | 0.00 | 89 | 1015.7 |
| 20260905164604 | 59 | 215 | 0.0 | 2.0 | 0.00 | 0.00 | 0.00 | 90 | 1015.7 |
| 20260905164104 | 59 | 215 | 0.0 | 2.0 | 0.00 | 0.00 | 0.00 | 90 | 1015.7 |
| 20260905163604 | 59 | 215 | 0.0 | 2.0 | 0.00 | 0.00 | 0.00 | 90 | 1015.7 |
| 20260905163104 | 58 | 215 | 1.0 | 3.0 | 0.00 | 0.00 | 0.00 | 90 | 1015.6 |
| 20260905162605 | 58 | 215 | 0.0 | 3.0 | 0.00 | 0.00 | 0.00 | 90 | 1015.5 |
| 20260905162104 | 58 | 215 | 1.0 | 3.0 | 0.00 | 0.00 | 0.00 | 90 | 1015.5 |
| 20260905161605 | 58 | 215 | 1.0 | 3.0 | 0.00 | 0.00 | 0.00 | 91 | 1015.5 |
| 20260905160605 | 58 | 215 | 0.0 | 0.0 | 0.00 | 0.00 | 0.00 | 91 | 1015.4 |
| 20260905155604 | 57 | 215 | 0.0 | 0.0 | 0.00 | 0.00 | 0.00 | 90 | 1015.3 |
| 20260905155105 | 57 | 215 | 0.0 | 0.0 | 0.00 | 0.00 | 0.00 | 90 | 1015.4 |
| 20260905154603 | 57 | 215 | 0.0 | 0.0 | 0.00 | 0.00 | 0.00 | 90 | 1015.4 |
| 20260905153603 | 56 | 215 | 0.0 | 0.0 | 0.00 | 0.00 | 0.00 | 90 | 1015.4 |
| 20260905153104 | 56 | 215 | 0.0 | 0.0 | 0.00 | 0.00 | 0.00 | 90 | 1015.4 |
| 20260905152604 | 56 | 215 | 0.0 | 0.0 | 0.00 | 0.00 | 0.00 | 90 | 1015.4 |
| 20260905152105 | 55 | 215 | 0.0 | 0.0 | 0.00 | 0.00 | 0.00 | 90 | 1015.5 |
| 20260905151104 | 55 | 215 | 0.0 | 0.0 | 0.00 | 0.00 | 0.00 | 90 | 1015.5 |
| 20260905150604 | 55 | 215 | 0.0 | 0.0 | 0.00 | 0.00 | 0.00 | 90 | 1015.4 |
| 20260905150104 | 55 | 215 | 0.0 | 0.0 | 0.00 | 0.00 | 0.00 | 90 | 1015.5 |
| 20260905145604 | 55 | 215 | 0.0 | 0.0 | 0.00 | 0.00 | 0.00 | 90 | 1015.4 |
| 20260905144606 | 54 | 215 | 0.0 | 0.0 | 0.00 | 0.00 | 0.00 | 90 | 1015.4 |
| 20260905144103 | 54 | 215 | 0.0 | 0.0 | 0.00 | 0.00 | 0.00 | 90 | 1015.4 |
| 20260905143604 | 53 | 3 | 0.0 | 0.0 | 0.00 | 0.00 | 0.00 | 88 | 1015.4 |
| 20260905143104 | 53 | 3 | 0.0 | 0.0 | 0.00 | 0.00 | 0.00 | 88 | 1015.3 |
| 20260905142104 | 53 | 2 | 0.0 | 0.0 | 0.00 | 0.00 | 0.00 | 88 | 1015.1 |
| 20260905141604 | 53 | 2 | 0.0 | 0.0 | 0.00 | 0.00 | 0.00 | 88 | 1015.1 |
| 20260905141104 | 53 | 3 | 0.0 | 0.0 | 0.00 | 0.00 | 0.00 | 88 | 1015.0 |
| 20260905140604 | 53 | 2 | 0.0 | 0.0 | 0.00 | 0.00 | 0.00 | 88 | 1015.1 |
| 20260905140104 | 53 | 3 | 0.0 | 0.0 | 0.00 | 0.00 | 0.00 | 88 | 1014.9 |
| 20260905135603 | 53 | 3 | 0.0 | 0.0 | 0.00 | 0.00 | 0.00 | 88 | 1014.9 |
| 20260905135104 | 53 | 3 | 0.0 | 0.0 | 0.00 | 0.00 | 0.00 | 88 | 1014.8 |
| 20260905134604 | 53 | 3 | 0.0 | 0.0 | 0.00 | 0.00 | 0.00 | 88 | 1014.8 |
| 20260905134104 | 53 | 3 | 0.0 | 0.0 | 0.00 | 0.00 | 0.00 | 88 | 1014.8 |
| 20260905133604 | 53 | 3 | 0.0 | 0.0 | 0.00 | 0.00 | 0.00 | 88 | 1014.7 |
| 20260905133104 | 53 | 3 | 0.0 | 0.0 | 0.00 | 0.00 | 0.00 | 88 | 1014.7 |
| 20260905132104 | 53 | 3 | 0.0 | 0.0 | 0.00 | 0.00 | 0.00 | 88 | 1014.7 |
| 20260905131604 | 53 | 1 | 0.0 | 0.0 | 0.00 | 0.00 | 0.00 | 88 | 1014.7 |
| 20260905130606 | 53 | 3 | 0.0 | 0.0 | 0.00 | 0.00 | 0.00 | 88 | 1014.7 |
| 20260905130104 | 53 | 3 | 0.0 | 0.0 | 0.00 | 0.00 | 0.00 | 88 | 1014.6 |
| 20260905124603 | 53 | 3 | 0.0 | 0.0 | 0.00 | 0.00 | 0.00 | 88 | 1014.7 |
| 20260905124103 | 53 | 3 | 0.0 | 0.0 | 0.00 | 0.00 | 0.00 | 88 | 1014.7 |
| 20260905123607 | 53 | 3 | 0.0 | 0.0 | 0.00 | 0.00 | 0.00 | 88 | 1014.7 |
| 20260905123111 | 53 | 3 | 0.0 | 0.0 | 0.00 | 0.00 | 0.00 | 88 | 1014.7 |
| 20260905122603 | 53 | 3 | 0.0 | 0.0 | 0.00 | 0.00 | 0.00 | 88 | 1014.7 |
| 20260905122106 | 53 | 215 | 0.0 | 0.0 | 0.00 | 0.00 | 0.00 | 88 | 1014.7 |
| 20260905121605 | 53 | 215 | 0.0 | 0.0 | 0.00 | 0.00 | 0.00 | 88 | 1014.7 |
| 20260905121104 | 53 | 215 | 0.0 | 0.0 | 0.00 | 0.00 | 0.00 | 88 | 1014.7 |
| 20260905120604 | 53 | 215 | 0.0 | 0.0 | 0.00 | 0.00 | 0.00 | 88 | 1014.6 |
| 20260905120104 | 53 | 215 | 0.0 | 0.0 | 0.00 | 0.00 | 0.00 | 88 | 1014.7 |
| 20260905115603 | 53 | 215 | 0.0 | 0.0 | 0.00 | 0.00 | 0.00 | 88 | 1014.6 |
| 20260905115104 | 53 | 215 | 0.0 | 0.0 | 0.00 | 0.00 | 0.00 | 88 | 1014.7 |
| 20260905114604 | 53 | 215 | 0.0 | 0.0 | 0.00 | 0.00 | 0.00 | 88 | 1014.7 |
| 20260905114104 | 53 | 215 | 0.0 | 0.0 | 0.00 | 0.00 | 0.00 | 87 | 1014.7 |
| 20260905113603 | 53 | 215 | 0.0 | 0.0 | 0.00 | 0.00 | 0.00 | 87 | 1014.6 |
| 20260905113104 | 53 | 215 | 0.0 | 0.0 | 0.00 | 0.00 | 0.00 | 87 | 1014.5 |
| 20260905112605 | 53 | 215 | 0.0 | 0.0 | 0.00 | 0.00 | 0.00 | 87 | 1014.5 |
| 20260905112105 | 53 | 215 | 0.0 | 0.0 | 0.00 | 0.00 | 0.00 | 87 | 1014.5 |
| 20260905111604 | 53 | 215 | 0.0 | 0.0 | 0.00 | 0.00 | 0.00 | 87 | 1014.5 |
| 20260905110603 | 53 | 215 | 0.0 | 0.0 | 0.00 | 0.00 | 0.00 | 87 | 1014.5 |
| 20260905105604 | 53 | 215 | 0.0 | 1.0 | 0.00 | 0.00 | 0.00 | 87 | 1014.6 |
| 20260905105104 | 53 | 215 | 0.0 | 0.0 | 0.00 | 0.00 | 0.00 | 87 | 1014.6 |
| 20260905104604 | 53 | 215 | 0.0 | 1.0 | 0.00 | 0.00 | 0.00 | 87 | 1014.6 |
| 20260905104104 | 53 | 215 | 0.0 | 2.0 | 0.00 | 0.00 | 0.00 | 87 | 1014.6 |
| 20260905103103 | 53 | 215 | 0.0 | 0.0 | 0.00 | 0.00 | 0.00 | 86 | 1014.7 |
| 20260905102604 | 53 | 215 | 0.0 | 0.0 | 0.00 | 0.00 | 0.00 | 86 | 1014.7 |
| 20260905102104 | 53 | 215 | 0.0 | 0.0 | 0.00 | 0.00 | 0.00 | 86 | 1014.7 |
| 20260905101604 | 52 | 215 | 0.0 | 0.0 | 0.00 | 0.00 | 0.00 | 86 | 1014.6 |
| 20260905100604 | 52 | 215 | 0.0 | 0.0 | 0.00 | 0.00 | 0.00 | 86 | 1014.5 |
| 20260905095604 | 53 | 215 | 0.0 | 0.0 | 0.00 | 0.00 | 0.00 | 86 | 1014.5 |
| 20260905095104 | 53 | 215 | 0.0 | 0.0 | 0.00 | 0.00 | 0.00 | 85 | 1014.5 |
| 20260905094603 | 53 | 215 | 0.0 | 0.0 | 0.00 | 0.00 | 0.00 | 85 | 1014.4 |
| 20260905094104 | 53 | 215 | 0.0 | 0.0 | 0.00 | 0.00 | 0.00 | 85 | 1014.4 |
| 20260905093605 | 53 | 215 | 0.0 | 0.0 | 0.00 | 0.00 | 0.00 | 85 | 1014.5 |
| 20260905092604 | 53 | 215 | 0.0 | 0.0 | 0.00 | 0.00 | 0.00 | 85 | 1014.4 |
| 20260905092104 | 53 | 215 | 0.0 | 0.0 | 0.00 | 0.00 | 0.00 | 85 | 1014.4 |
| 20260905091604 | 53 | 215 | 0.0 | 0.0 | 0.00 | 0.00 | 0.00 | 85 | 1014.4 |
| 20260905091105 | 53 | 215 | 0.0 | 0.0 | 0.00 | 0.00 | 0.00 | 84 | 1014.4 |
| 20260905090605 | 53 | 215 | 0.0 | 0.0 | 0.00 | 0.00 | 0.00 | 84 | 1014.4 |
| 20260905090106 | 53 | 215 | 0.0 | 0.0 | 0.00 | 0.00 | 0.00 | 84 | 1014.4 |
| 20260905084605 | 53 | 215 | 0.0 | 0.0 | 0.00 | 0.01 | 0.00 | 84 | 1014.5 |
| 20260905084107 | 53 | 215 | 0.0 | 0.0 | 0.00 | 0.01 | 0.00 | 84 | 1014.5 |
| 20260905083605 | 53 | 215 | 0.0 | 0.0 | 0.00 | 0.01 | 0.00 | 84 | 1014.5 |
| 20260905083105 | 54 | 215 | 0.0 | 0.0 | 0.00 | 0.01 | 0.00 | 84 | 1014.5 |
| 20260905082107 | 54 | 215 | 0.0 | 0.0 | 0.00 | 0.01 | 0.00 | 84 | 1014.5 |
| 20260905081606 | 54 | 215 | 0.0 | 0.0 | 0.00 | 0.01 | 0.00 | 84 | 1014.4 |
| 20260905081106 | 54 | 215 | 0.0 | 0.0 | 0.00 | 0.01 | 0.00 | 84 | 1014.4 |
| 20260905080606 | 54 | 215 | 0.0 | 0.0 | 0.00 | 0.01 | 0.00 | 84 | 1014.3 |
| 20260905080106 | 55 | 215 | 0.0 | 0.0 | 0.00 | 0.01 | 0.00 | 84 | 1014.2 |
| 20260905075606 | 55 | 215 | 0.0 | 0.0 | 0.00 | 0.01 | 0.00 | 84 | 1014.2 |
| 20260905074106 | 55 | 215 | 0.0 | 0.0 | 0.00 | 0.01 | 0.00 | 84 | 1013.9 |
| 20260905073606 | 55 | 215 | 0.0 | 0.0 | 0.00 | 0.01 | 0.00 | 84 | 1013.8 |
| 20260905073105 | 55 | 215 | 0.0 | 0.0 | 0.00 | 0.01 | 0.00 | 84 | 1013.8 |
| 20260905072106 | 56 | 215 | 0.0 | 0.0 | 0.00 | 0.01 | 0.00 | 84 | 1013.6 |
| 20260905071605 | 56 | 215 | 0.0 | 0.0 | 0.00 | 0.01 | 0.00 | 84 | 1013.6 |
| 20260905071110 | 56 | 215 | 0.0 | 0.0 | 0.00 | 0.01 | 0.00 | 85 | 1013.6 |
| 20260905070106 | 56 | 215 | 0.0 | 2.0 | 0.00 | 0.01 | 0.00 | 85 | 1013.6 |
| 20260905065105 | 56 | 215 | 0.0 | 2.0 | 0.00 | 0.01 | 0.01 | 85 | 1013.6 |
| 20260905064106 | 56 | 215 | 0.0 | 2.0 | 0.00 | 0.01 | 0.01 | 84 | 1013.5 |
| 20260905063605 | 56 | 215 | 0.0 | 3.0 | 0.00 | 0.01 | 0.01 | 84 | 1013.5 |
| 20260905063106 | 56 | 215 | 1.0 | 3.0 | 0.00 | 0.01 | 0.01 | 84 | 1013.5 |
| 20260905062606 | 56 | 214 | 1.0 | 2.0 | 0.00 | 0.01 | 0.01 | 83 | 1013.4 |
| 20260905062106 | 56 | 214 | 1.0 | 2.0 | 0.00 | 0.01 | 0.01 | 83 | 1013.4 |
| 20260905061605 | 56 | 214 | 0.0 | 1.0 | 0.00 | 0.01 | 0.01 | 82 | 1013.4 |
| 20260905061106 | 56 | 214 | 0.0 | 2.0 | 0.00 | 0.01 | 0.01 | 82 | 1013.4 |
| 20260905060606 | 56 | 214 | 0.0 | 2.0 | 0.00 | 0.01 | 0.01 | 82 | 1013.4 |
| 20260905060106 | 56 | 214 | 0.0 | 0.0 | 0.00 | 0.01 | 0.01 | 82 | 1013.4 |
| 20260905055105 | 56 | 214 | 0.0 | 0.0 | 0.00 | 0.01 | 0.01 | 82 | 1013.4 |
| 20260905054607 | 56 | 214 | 0.0 | 0.0 | 0.00 | 0.01 | 0.01 | 81 | 1013.5 |
| 20260905054105 | 57 | 214 | 0.0 | 0.0 | 0.00 | 0.01 | 0.01 | 81 | 1013.5 |
| 20260905053606 | 57 | 214 | 0.0 | 0.0 | 0.00 | 0.01 | 0.01 | 80 | 1013.5 |
| 20260905053107 | 57 | 214 | 0.0 | 0.0 | 0.00 | 0.01 | 0.01 | 80 | 1013.5 |
| 20260905052607 | 57 | 214 | 0.0 | 0.0 | 0.00 | 0.01 | 0.01 | 80 | 1013.5 |
| 20260905052105 | 57 | 214 | 0.0 | 0.0 | 0.00 | 0.01 | 0.01 | 80 | 1013.4 |
| 20260905051606 | 57 | 214 | 0.0 | 0.0 | 0.00 | 0.01 | 0.01 | 80 | 1013.4 |
| 20260905051107 | 57 | 214 | 0.0 | 0.0 | 0.00 | 0.01 | 0.01 | 79 | 1013.4 |
| 20260905050606 | 58 | 214 | 0.0 | 0.0 | 0.00 | 0.01 | 0.01 | 79 | 1013.4 |
| 20260905050107 | 58 | 214 | 0.0 | 0.0 | 0.00 | 0.01 | 0.01 | 78 | 1013.3 |
| 20260905045606 | 58 | 214 | 0.0 | 0.0 | 0.00 | 0.01 | 0.01 | 78 | 1013.3 |
| 20260905044106 | 58 | 214 | 0.0 | 0.0 | 0.00 | 0.01 | 0.01 | 77 | 1013.3 |
| 20260905043605 | 58 | 214 | 0.0 | 0.0 | 0.00 | 0.01 | 0.01 | 77 | 1013.4 |
| 20260905043107 | 58 | 214 | 0.0 | 0.0 | 0.00 | 0.01 | 0.01 | 77 | 1013.4 |
| 20260905042105 | 59 | 214 | 0.0 | 2.0 | 0.00 | 0.01 | 0.01 | 77 | 1013.4 |
| 20260905041107 | 59 | 214 | 0.0 | 2.0 | 0.00 | 0.01 | 0.01 | 77 | 1013.3 |
| 20260905040607 | 59 | 214 | 0.0 | 1.0 | 0.00 | 0.01 | 0.01 | 76 | 1013.3 |
| 20260905040105 | 59 | 214 | 0.0 | 2.0 | 0.00 | 0.01 | 0.01 | 76 | 1013.3 |
| 20260905035606 | 59 | 214 | 1.0 | 2.0 | 0.00 | 0.01 | 0.01 | 76 | 1013.3 |
| 20260905035106 | 60 | 214 | 0.0 | 2.0 | 0.00 | 0.01 | 0.01 | 77 | 1013.3 |
| 20260905034606 | 60 | 214 | 0.0 | 1.0 | 0.00 | 0.01 | 0.01 | 76 | 1013.2 |
| 20260905034105 | 60 | 214 | 0.0 | 0.0 | 0.00 | 0.01 | 0.01 | 76 | 1013.2 |
| 20260905033606 | 60 | 214 | 0.0 | 0.0 | 0.00 | 0.01 | 0.01 | 76 | 1013.2 |
| 20260905032605 | 61 | 214 | 0.0 | 1.0 | 0.00 | 0.01 | 0.01 | 76 | 1013.1 |
| 20260905032105 | 61 | 214 | 0.0 | 2.0 | 0.00 | 0.01 | 0.01 | 76 | 1013.0 |
| 20260905031608 | 61 | 214 | 0.0 | 2.0 | 0.00 | 0.01 | 0.01 | 76 | 1013.0 |
| 20260905031106 | 61 | 214 | 0.0 | 2.0 | 0.00 | 0.01 | 0.01 | 76 | 1013.0 |
| 20260905030106 | 61 | 214 | 0.0 | 2.0 | 0.00 | 0.01 | 0.01 | 76 | 1013.0 |
| 20260905025605 | 62 | 214 | 0.0 | 2.0 | 0.00 | 0.01 | 0.01 | 76 | 1012.9 |
| 20260905025106 | 62 | 214 | 0.0 | 1.0 | 0.00 | 0.01 | 0.01 | 76 | 1012.8 |
| 20260905024607 | 62 | 214 | 0.0 | 0.0 | 0.00 | 0.01 | 0.01 | 76 | 1012.8 |
| 20260905024105 | 62 | 214 | 0.0 | 0.0 | 0.00 | 0.01 | 0.01 | 76 | 1012.9 |
| 20260905023605 | 62 | 214 | 0.0 | 2.0 | 0.00 | 0.01 | 0.01 | 76 | 1012.9 |
| 20260905023105 | 62 | 214 | 0.0 | 2.0 | 0.00 | 0.01 | 0.01 | 76 | 1013.0 |
| 20260905022605 | 62 | 214 | 0.0 | 2.0 | 0.00 | 0.01 | 0.01 | 76 | 1013.0 |
| 20260905022105 | 62 | 214 | 0.0 | 0.0 | 0.00 | 0.02 | 0.01 | 76 | 1013.0 |
| 20260905021606 | 62 | 214 | 0.0 | 0.0 | 0.00 | 0.02 | 0.01 | 76 | 1013.0 |
| 20260905021106 | 62 | 214 | 0.0 | 1.0 | 0.00 | 0.02 | 0.01 | 76 | 1013.0 |
| 20260905020106 | 62 | 214 | 0.0 | 3.0 | 0.00 | 0.03 | 0.01 | 76 | 1013.0 |
| 20260905015107 | 63 | 213 | 1.0 | 3.0 | 0.00 | 0.05 | 0.01 | 76 | 1012.8 |